Regional Weather Roundup
Issued by NWS San Angelo, TX

Home | Current Version | Previous Version | Text Only | Print | Product List | Glossary On
Versions: 1 2 3 4 5 6 7 8 9 10 11 12 13 14 15 16 17 18 19 20 21 22 23 24 25 26 27 28 29 30 31 32 33 34 35 36 37 38 39 40 41 42 43 44 45 46 47 48 49 50
000
ASUS44 KSJT 301010
RWRSJT
WEST CENTRAL TEXAS REGIONAL WEATHER ROUNDUP
NATIONAL WEATHER SERVICE SAN ANGELO TX
500 AM CDT TUE SEP 30 2014

NOTE: "FAIR" INDICATES FEW OR NO CLOUDS BELOW 12,000 FEET WITH NO
SIGNIFICANT WEATHER AND/OR OBSTRUCTIONS TO VISIBILITY.

TXZ049-054-064>066-071>073-076>078-098-099-113-114-127-128-139-140-
154-155-168>170-301100
...LOCATIONS ACROSS WEST CENTRAL TEXAS...

CITY           SKY/WX    TMP DP  RH WIND       PRES   REMARKS
SAN ANGELO     CLEAR     65  60  84 S5        29.91S
ABILENE        CLEAR     67  56  67 S6        29.92S
DYESS AFB      CLEAR     65  55  70 S6        29.90S
JUNCTION       CLEAR     63  61  93 W3        29.92F
SWEETWATER     PTCLDY    65  58  79 SE6       29.94F
BROWNWOOD      MOCLDY    59  55  88 CALM      29.92S
COLEMAN        SUNNY     64  55  72 CALM      29.92F
SONORA         CLEAR     66  63  88 CALM      29.97S
OZONA          FAIR      59  55  88 CALM      29.95S
BRADY          CLEAR     64  57  77 SE6       29.92F
$$

TEXAS PANHANDLE/OKLAHOMA PANHANDLE

CITY           SKY/WX    TMP DP  RH WIND       PRES   REMARKS
AMARILLO       PTCLDY    63  56  78 S15       29.92S
BORGER         LGT RAIN  66  58  75 SW5       29.90S
CANADIAN       MOCLDY    68  56  64 S9G16     29.88F
DALHART        MOCLDY    61  58  90 W5        29.92F
DUMAS          PTSUNNY   60  58  92 S8        29.90F
GUYMON         NOT AVBL
HEREFORD       MOSUNNY   61  59  93 MISG      29.93F
PAMPA          MOSUNNY   62  53  72 S7        29.92S
PERRYTON       CLOUDY    65  54  66 S13       29.88F
$$

SOUTHERN PANHANDLE/SOUTH PLAINS/ROLLING PLAINS

CITY           SKY/WX    TMP DP  RH WIND       PRES   REMARKS
LUBBOCK        PTCLDY    63  57  81 S9        29.92F
SNYDER         PTCLDY    63  57  81 S6        29.91F
CHILDRESS      PTCLDY    63  55  75 S7        29.90F
SEMINOLE       PTSUNNY   63  58  86 S3        29.93F
$$

PERMIAN BASIN

CITY           SKY/WX    TMP DP  RH WIND       PRES   REMARKS
MIDLAND        CLEAR     64  59  83 SE8       29.90F
ODESSA         PTCLDY    67  59  75 S10       29.91F
WINK           PTCLDY    66  60  81 SE9       29.87F
$$

FAR WEST/SOUTHWEST MOUNTAINS/TRANS PECOS

CITY           SKY/WX    TMP DP  RH WIND       PRES   REMARKS
ALPINE         MOSUNNY   61  55  82 SW9       30.05F
DRYDEN           N/A     65  62  90 NW5       29.89F
EL PASO        PTCLDY    72  55  55 SW9       29.93S
FORT STOCKTON  CLEAR     67  59  75 S9        29.90F
GUADALUPE PASS CLEAR     63  55  75 W10       30.03F
MARFA          CLEAR     54  52  94 CALM      30.05F
PECOS          MOSUNNY   64  59  82 E7        29.86F
$$

DALLAS/FORT WORTH METROPLEX

CITY           SKY/WX    TMP DP  RH WIND       PRES   REMARKS
DFW AIRPORT    MOCLDY    71  64  78 E5        29.89F
FTW MEACHAM    PTCLDY    73  65  75 SE3       29.89S
DAL-EXECUTIVE  PTCLDY    70  65  84 S5        29.90R
GRAND PRAIRIE  PTCLDY    73  65  76 CALM      29.91S
ADDISON        PTCLDY    73  64  73 E3        29.91F
MESQUITE       MOSUNNY   65  63  91 E3        29.90S
LANCASTER      MOSUNNY   66  59  78 CALM      29.91S
$$

NORTH CENTRAL TEXAS

CITY           SKY/WX    TMP DP  RH WIND       PRES   REMARKS
SHRMAN/DENISON MOSUNNY   65  60  82 CALM      29.92S
GAINESVILLE    PTCLDY    66  60  81 CALM      29.92F
BRIDGEPORT     MOSUNNY   68  62  80 SE3       29.91F
DENTON         PTCLDY    65  62  90 CALM      29.90S
WAXAHACHIE     MOSUNNY   68  64  89 CALM      29.92S
GRANBURY       MOSUNNY   70  64  80 CALM      29.91S
$$

WESTERN NORTH TEXAS

CITY           SKY/WX    TMP DP  RH WIND       PRES   REMARKS
WICHITA FALLS  PTCLDY    66  61  84 S8        29.88F
VERNON         SUNNY     67  58  72 S7        29.89S
BRECKENRIDGE   SUNNY     67  55  66 S5        29.90S
COMANCHE       CLEAR     67  59  74 SW8       29.91F
$$

CENTRAL AND SOUTH CENTRAL TEXAS

CITY           SKY/WX    TMP DP  RH WIND       PRES   REMARKS
AUSTIN/BERGSTM PTCLDY    64  62  93 CALM      29.88F
WACO           CLEAR     65  60  84 CALM      29.89F
HILLSBORO      SUNNY     70  64  80 CALM      29.90S
TEMPLE         PTCLDY    66  55  68 CALM      29.89S
KILLEEN-GRAY   CLEAR     66  61  82 W3        29.90F
FORT HOOD      CLEAR     69  62  78 CALM      29.90F
GEORGETOWN     CLEAR     64  61  88 CALM      29.90S
LAGO VISTA     FAIR      73  60  65 CALM      29.92S
SAN MARCOS     PTCLDY    66  57  72 CALM      29.90S
NEW BRAUNFELS  PTCLDY    66  63  90 N5        29.88S
RANDOLPH AFB   MOCLDY    66  63  88 N5        29.89S
SAN ANTONIO    CLEAR     68  63  84 CALM      29.89F
STINSON        MOCLDY    70  66  87 CALM      29.87S
PLEASANTON     NOT AVBL
LA GRANGE      CLEAR     71  69  92 CALM      29.86F
GIDDINGS       SUNNY     69  65  87 CALM      29.91F
$$

EAST TEXAS

CITY           SKY/WX    TMP DP  RH WIND       PRES   REMARKS
PARIS          MOCLDY    70  57  64 NE6       29.93S
CLARKSVILLE    NOT AVBL
TYLER          MOCLDY    70  66  87 CALM      29.89F
LONGVIEW       CLOUDY    70  65  84 CALM      29.90S
PALESTINE      SUNNY     68  67  97 CALM      29.90S
NACOGDOCHES    MOCLDY    66  64  94 CALM      29.90S
$$

TEXAS HILL COUNTRY AND EDWARDS PLATEAU

CITY           SKY/WX    TMP DP  RH WIND       PRES   REMARKS
LLANO          SUNNY     63  61  94 CALM      29.94S
HORSESHOE BAY  FAIR      64  60  88 CALM      29.91S
KERRVILLE      CLEAR     61  59  94 CALM      29.93F
FREDERICKSBRG  CLEAR     61  59  92 CALM      29.93F
ROCKSPRINGS    SUNNY     64  63  94 SE5       29.96F
HONDO          CLEAR     66  62  87 NE3       29.91S
UVALDE         SUNNY     68  66  93 NE5       29.90S
DEL RIO        CLEAR     71  66  84 NE7       29.87F
$$

SOUTHEAST TEXAS

CITY           SKY/WX    TMP DP  RH WIND       PRES   REMARKS
COLLEGE STN    PTCLDY    73  68  84 CALM      29.88F
CALDWELL       PTSUNNY   68  66  94 CALM      29.91F
CROCKETT       MOSUNNY   72  70  94 CALM      29.92S FOG
BRENHAM        CLEAR     71  68  90 CALM      29.88F
HUNTSVILLE     CLEAR     69  66  90 CALM      29.88F
CONROE         PTCLDY    69  67  93 CALM      29.88F
HOUSTON BUSH   PTCLDY    73  71  93 CALM      29.87S
HOUSTON HOBBY  PTCLDY    74  72  93 CALM      29.86R
PERLAND        CLOUDY    74  71  91 CALM      29.87S
WHARTON        MOSUNNY   70  70  98 N3        29.87S FOG
$$

THE UPPER TEXAS COAST

CITY           SKY/WX    TMP DP  RH WIND       PRES   REMARKS
ORANGE           N/A    N/A N/A N/A CALM      29.88R FOG
PORT ARTHUR    CLEAR     74  72  93 NE5       29.86R
GALVESTON      PTCLDY    77  76  96 NE3       29.86S
ANGLETON       CLEAR     71  71 100 CALM      29.86S FOG
BAY CITY       MOSUNNY  N/A N/A N/A CALM      29.85S FOG
$$

TEXAS COASTAL BEND, RIO GRANDE PLAINS DEEP SOUTH TEXAS

CITY           SKY/WX    TMP DP  RH WIND       PRES   REMARKS
VICTORIA       PTCLDY    73  72  96 N5        29.86F FOG
BEEVILLE       FAIR      72  72 100 CALM      29.85F FOG
ROCKPORT       MOCLDY    76  74  93 N6        29.83F
PORT ARANSAS   PTSUNNY   77  75  95 N9        29.83S
PORT LAVACA    SUNNY     73  72  97 N3        29.85S FOG
CORPUS CHRISTI PTCLDY    75  73  93 N6        29.83F
KINGSVILLE NAS CLEAR     75  75 100 N8        29.83F
COTULLA        CLEAR     72  68  87 SE3       29.87S
LAREDO         CLEAR     74  73  96 W3        29.89R
BROWNSVILLE    MOCLDY    73  73 100 W5        29.82S
PORT ISABEL    PTCLDY    76  75  97 CALM      29.81S FOG
HEBBRONVILLE     N/A     72  71  94 CALM      29.86F
MCALLEN        CLOUDY    76  75  97 CALM      29.83F
WESLACO        DRIZZLE   75  73  92 NW3       29.82F
FALFURRIAS     CLOUDY    74  73  96 E3        29.83F
EDINBURG       CLOUDY    76  73  90 CALM      29.83S
$$


USA.gov is the U.S. government's official web portal to all federal, state and local government web resources and services.